Rechercher aéroport 
image banner adimage banner adimage banner ad
image banner ad

KEED - Needles

Situé à Needles, United States

ICAO - EED, IATA - EED

Données fournies par Airmate  

Information générale

Coordonnées: N34°45'59" W114°37'24"
Élévation : 983 feet MSL.
Variation magnétique : 14° East
Voir autres Aéroports à California

Données opérationnelles

Special qualification required
Heure actuelle UTC:
Heure actuelle locale:
Météo
METAR: KEED 191156Z AUTO 24006KT 10SM CLR 12/M07 A2994 RMK AO2 SLP121 T01171067 10183 20117 53007
TAF: KEED 191120Z 1912/2012 VRB05KT P6SM SKC FM191700 01008KT P6SM SKC FM200200 26007KT P6SM SKC FM200800 VRB05KT P6SM FEW250
Voir NOTAMs / SUP AIP / TFR affectant cet aéroport [VIEW]
Fréquences de communication: [VIEW]

Pistes:

Identifiant RWYQFULongueur (ft)Largeur (ft)SurfaceLDA (ft)
0229°4235100ASPH
20209°4235100ASPH
11119°5005100ASPH
29299°5005100ASPH

Coordonnées de l'aéroport

Adresse: Needles United States

Vue satellite de KEED